Weather History for PAMR - August, 2013

Change the Weather History Date:

Wednesday, August 21, 2013

  Actual Average Record
Temperature  
Mean Temperature 55 °F -  
Max Temperature 57 °F 62 °F 75 °F (2001)
Min Temperature 53 °F 48 °F 46 °F (2006)
Degree Days  
Heating Degree Days 10    
Growing Degree Days 5 (Base 50)    
Moisture  
Dew Point 53 °F    
Average Humidity 90    
Maximum Humidity 100    
Minimum Humidity 77    
Precipitation  
Precipitation 0.38 in - - ()
Sea Level Pressure  
Sea Level Pressure 29.81 in    
Wind  
Wind Speed 2 mph (North)    
Max Wind Speed 7 mph    
Max Gust Speed -    
Visibility 9 miles    
Events Rain    
Averages and records for this station are not official NWS values.
T = Trace of Precipitation, MM = Missing Value Source: NWS Daily Summary

Daily Weather History Graph

Daily Weather History Graph

Search for Another Location

Airport or City:

Trip Planner

Search our weather history database for the weather conditions in past years. The results will help you decide how hot, cold, wet, or windy it might be!

Date:

Astronomy

Aug. 21, 2013 Rise Set
Actual Time 6:24 AM AKDT 9:38 PM AKDT
Civil Twilight 5:33 AM AKDT 10:29 PM AKDT
Nautical Twilight 4:19 AM AKDT 11:41 PM AKDT
Astronomical Twilight 2:34 AM AKDT 1:29 AM AKDT
Moon 9:11 PM AKDT (8/21) 7:47 AM AKDT (8/21)
Length of Visible Light 16h 56m
Length of Day
15h 14m
Full, 99% of the Moon is Illuminated
Aug 21
Full
Aug 28
Last Quarter
Sep 5
New
Sep 12
First Quarter
Sep 19
Full

Hourly Weather History & Observations

Time (AKDT) Temp. Dew Point Humidity Pressure Visibility Wind Dir Wind Speed Gust Speed Precip Events Conditions
12:53 AM 57.0 °F 50.0 °F 77% 29.85 in 10.0 mi Calm Calm - 0.00 in Rain Light Rain
1:53 AM 55.9 °F 50.0 °F 80% 29.86 in 10.0 mi SSW 4.6 mph - 0.00 in Rain Light Rain
2:53 AM 55.0 °F 53.1 °F 93% 29.86 in 9.0 mi Calm Calm - 0.02 in Rain Light Rain
3:53 AM 54.0 °F 52.0 °F 93% 29.86 in 10.0 mi East 3.5 mph - 0.03 in Rain Light Rain
4:53 AM 54.0 °F 52.0 °F 93% 29.85 in 10.0 mi NNE 3.5 mph - 0.01 in Rain Light Rain
5:53 AM 53.1 °F 51.1 °F 93% 29.84 in 10.0 mi Calm Calm - 0.00 in Rain Light Rain
6:53 AM 54.0 °F 51.1 °F 90% 29.84 in 10.0 mi North 4.6 mph - 0.01 in Rain Light Rain
7:53 AM 54.0 °F 51.1 °F 90% 29.83 in 10.0 mi North 3.5 mph - 0.01 in Rain Light Rain
8:53 AM 55.0 °F 52.0 °F 89% 29.83 in 10.0 mi Calm Calm - 0.00 in   Overcast
9:53 AM 55.0 °F 53.1 °F 93% 29.83 in 10.0 mi Calm Calm - 0.01 in Rain Light Rain
10:53 AM 55.0 °F 52.0 °F 89% 29.82 in 10.0 mi North 3.5 mph - 0.01 in Rain Light Rain
11:53 AM 55.9 °F 52.0 °F 87% 29.82 in 7.0 mi Calm Calm - 0.03 in Rain Light Rain
12:53 PM 57.0 °F 53.1 °F 87% 29.82 in 7.0 mi Calm Calm - 0.02 in Rain Light Rain
1:53 PM 57.0 °F 54.0 °F 89% 29.81 in 7.0 mi Calm Calm - 0.03 in Rain Light Rain
2:53 PM 57.9 °F 54.0 °F 87% 29.80 in 7.0 mi Calm Calm - 0.02 in Rain Light Rain
3:53 PM 57.0 °F 54.0 °F 89% 29.80 in 10.0 mi NNW 5.8 mph - 0.01 in Rain Light Rain
4:53 PM 55.9 °F 53.1 °F 90% 29.79 in 10.0 mi North 6.9 mph - 0.02 in Rain Light Rain
5:53 PM 55.9 °F 53.1 °F 90% 29.78 in 8.0 mi North 4.6 mph - 0.01 in Rain Light Rain
6:53 PM 55.9 °F 53.1 °F 90% 29.78 in 8.0 mi North 4.6 mph - 0.02 in Rain Light Rain
7:51 PM 55.4 °F 53.6 °F 94% 29.76 in 9.0 mi North 3.5 mph - 0.01 in Rain Light Rain
7:53 PM 55.9 °F 53.1 °F 90% 29.77 in 9.0 mi North 3.5 mph - 0.01 in Rain Light Rain
8:53 PM 55.0 °F 52.0 °F 89% 29.76 in 8.0 mi North 3.5 mph - 0.02 in Rain Light Rain
9:53 PM 55.0 °F 53.1 °F 93% 29.77 in 7.0 mi North 3.5 mph - 0.01 in Rain Light Rain
10:53 PM 55.0 °F 53.1 °F 93% 29.77 in 10.0 mi Calm Calm - 0.04 in Rain Light Rain
11:37 PM 53.6 °F 53.6 °F 100% 29.76 in 10.0 mi Calm Calm - 0.03 in Rain Light Rain
11:53 PM 54.0 °F 53.1 °F 97% 29.76 in 10.0 mi Calm Calm - 0.04 in Rain Light Rain